This demonstration page uses our WeatherBlox Daily Observations layout. Learn more.

Left ArrowRight Arrow

39.01783, -85.05884

Hourly Observations for October 23, 2018

Temp ( °F °C ) Dew Point ( °F °C ) Humidity (%) Winds ( mph kmh ) Pressure ( in mb ) Visibility ( mi km ) Precip ( " mm )
12:52 am 00:52 Clear 49 9.4 35 1.7 59 59 SW 7 11 30.14 1021 10 16 N/A
1:52 am 01:52 Clear 48 8.9 35 1.7 61 61 SW 8 13 30.13 1020 10 16 N/A
2:52 am 02:52 Clear 47 8.3 36 2.2 66 66 SW 9 15 30.13 1020 10 16 N/A
3:52 am 03:52 Clear 46 7.8 36 2.2 68 68 SW 7 11 30.13 1020 10 16 N/A
4:52 am 04:52 Clear 44 6.7 36 2.2 73 73 SSW 3 6 30.13 1020 10 16 N/A
5:52 am 05:52 Clear 46 7.8 36 2.2 68 68 SW 5 7 30.13 1020 10 16 N/A
6:52 am 06:52 Clear 44 6.7 36 2.2 73 73 SW 5 7 30.14 1021 10 16 N/A
7:52 am 07:52 Clear 43 6.1 37 2.8 80 80 SW 6 9 30.15 1021 10 16 N/A
8:52 am 08:52 Sunny 45 7.2 38 3.3 77 77 WSW 6 9 30.17 1022 10 16 N/A
9:52 am 09:52 Sunny 50 10 40 4.4 68 68 W 8 13 30.19 1022 10 16 N/A
10:52 am 10:52 Sunny 54 12.2 38 3.3 55 55 NNW 7 11 30.21 1023 10 16 N/A
11:52 am 11:52 Sunny 57 13.9 37 2.8 47 47 N N/A 30.21 1023 10 16 N/A
12:52 pm 12:52 Sunny 60 15.6 36 2.2 41 41 NNW 8 13 30.21 1023 10 16 N/A
1:52 pm 13:52 Sunny 62 16.7 29 -1.7 29 29 WNW 13 20 30.18 1022 10 16 N/A
2:52 pm 14:52 Sunny 62 16.7 30 -1.1 30 30 WNW 12 19 30.17 1022 10 16 N/A
3:52 pm 15:52 Sunny 62 16.7 31 -0.6 31 31 NW 13 20 30.17 1022 10 16 N/A
4:52 pm 16:52 Sunny 62 16.7 30 -1.1 30 30 NW 13 20 30.18 1022 10 16 N/A
5:52 pm 17:52 Sunny 59 15 33 0.6 38 38 NW 10 17 30.19 1022 10 16 N/A
6:52 pm 18:52 Clear 55 12.8 35 1.7 47 47 NNW 8 13 30.20 1023 10 16 N/A
7:52 pm 19:52 Clear 52 11.1 36 2.2 55 55 NNW 9 15 30.22 1023 10 16 N/A
8:52 pm 20:52 Clear 50 10 36 2.2 59 59 NNW 10 17 30.24 1024 10 16 N/A
9:52 pm 21:52 Clear 48 8.9 36 2.2 63 63 N 9 15 30.25 1024 10 16 N/A
10:52 pm 22:52 Clear 46 7.8 35 1.7 66 66 N 9 15 30.27 1025 10 16 N/A
11:52 pm 23:52 Clear 46 7.8 35 1.7 66 66 N 12 19 30.27 1025 10 16 N/A

Powered by AerisWeather